Preview of NWS' New Version of Forecast
This preview is not operational and should not be used for support decisions.
Latest weather observations around

Coffeyville, Coffeyville Municipal Airport (KCFV)

Using English Units (Switch to International System of Units)
Date/ Time (CDT) Wind (mph) Vis. (mi) Weather Sky Cond. Temp (°F) Rel. Humidity Wind Chill (°F) Heat Index (°F) Pressure Precip. (in)
Air Dwpt 6 hour Altimeter (inHg) Sea level (inHg) 1 hr 3 hr 6 hr
Max Min
Sep 23 11:52 E 8 10 Clear CLR 77 64     64%   77 30.1 30.09      
Sep 23 10:52 ESE 8 10 Clear CLR 75 65     71%   76 30.1 30.08      
Sep 23 09:52 ESE 8 10 Clear CLR 71 64     79%   72 30.1 30.08      
Sep 23 08:52 ENE 6 10 Clear CLR 67 64     90%     30.09 30.07      
Sep 23 07:52 N 5 8 Clear CLR 62 60     93%     30.08 30.06      
Sep 23 06:52 Calm 6 Fog/Mist CLR 61 59     93%     30.07 30.05      
Sep 23 05:52 ENE 3 10 Clear CLR 62 60     93%     30.05 30.04      
Sep 23 04:52 ENE 3 10 Clear CLR 63 61     93%     30.05 30.03      
Sep 23 03:52 N 8 10 Clear CLR 64 62     93%     30.04 30.03      
Sep 23 02:52 N 6 10 Clear CLR 66 63     90%     30.04 30.02      
Sep 23 01:52 NNE 3 10 Mostly Clear FEW055 67 63     87%     30.04 30.03      
Sep 23 00:52 N 7 10 Partly Cloudy SCT038 68 64     87%     30.03 30.01      
Sep 22 23:52 N 5 10 Mostly Clear FEW060 FEW080 69 65     87%     30.03 30.01      
Sep 22 22:52 N 7 10 Cloudy OVC035 72 66     82%   73 30.02 30      
Sep 22 21:52 NNE 6 10 Cloudy FEW040 OVC050 73 67     81%   74 30 29.98      
Sep 22 20:52 N 9 10 Cloudy FEW014 BKN037 OVC044 76 69     79%   77 29.96 29.94      
Sep 22 20:47 N 13 10 Cloudy FEW014 BKN038 OVC045 75 70     83%   76 29.96        
Sep 22 20:36 NNW 10 10 Clear   76 72     88%   77 29.95        
Sep 22 19:52 SSW 3 10 Clear   75 71     88%   76 29.93 29.91      
Sep 22 19:28 SW 11 10 Cloudy FEW021 BKN038 OVC050 78 73     85%   80 29.92        
Sep 22 19:06 W 5 10 Cloudy BKN023 BKN045 OVC065 78 73     85%   80 29.91        
Sep 22 18:52 SW 9 10 Mostly Cloudy FEW027 SCT046 BKN065 79 73     82%   82 29.91 29.88      
Sep 22 18:24 S 8 10 Partly Cloudy FEW060 SCT080 80 73     79%   84 29.89        
Sep 22 18:09 S 13 10 Partly Cloudy FEW065 SCT080 81 73     77%   86 29.89        
Sep 22 17:52 S 11 10 Partly Cloudy FEW027 SCT075 SCT090 80 73     79%   84 29.89 29.86      
Sep 22 17:34 SSW 10 10 Mostly Cloudy SCT026 BKN033 80 72     76%   84 29.89        
Sep 22 17:14 S 14 10 Thunderstorms BKN026 OVC035 80 73     79%   84 29.89        
Sep 22 16:52 S 10 10 Cloudy BKN027 BKN034 OVC041 81 72     74%   85 29.88 29.85      
Sep 22 15:52 S 10 10 Mostly Cloudy SCT021 BKN026 BKN065 80 73     79%   84 29.88 29.86      
Sep 22 14:52 SSW 17 10 Mostly Cloudy BKN017 80 73     79%   84 29.89 29.87      
Sep 22 14:50 SSW 16 10 Mostly Cloudy BKN017 81 73     79%   85 29.89        
Sep 22 13:52 S 15 10 Partly Cloudy SCT016 77 72     84%   78 29.9 29.87      
Sep 22 13:28 SSW 13 10 Cloudy FEW014 BKN019 OVC047 76 72     88%   77 29.91        
Sep 22 12:59 S 15 10 Cloudy SCT015 SCT032 OVC042 75 72     90%   76 29.91        
Sep 22 12:52 S 15 10 Cloudy SCT015 BKN020 OVC044 75 72     90%   76 29.91 29.89     1
Sep 22 12:01 S 13 10 Cloudy SCT007 BKN029 OVC042 74 71     91%   75 29.92        
Sep 22 11:52 S 14 10 Cloudy SCT007 BKN030 OVC042 74 72     94%   75 29.92 29.9 0    
Sep 22 11:18 S 13 10 Light Rain SCT009 BKN043 OVC055 73 71     94%   74 29.92   0    
Sep 22 11:04 S 15 10 Light Rain SCT007 BKN013 OVC046 73 71     94%   74 29.92   0    
Sep 22 10:52 S 15 10 Light Rain BKN007 BKN017 OVC040 73 71     94%   74 29.92 29.9 0    
Sep 22 10:04 S 14 5 Rain and Fog/Mist BKN007 BKN027 OVC047 73 71     94%   74 29.92   0    
Sep 22 09:52 S 13 3 Rain and Fog/Mist SCT007 BKN032 OVC070 73 71     94%   74 29.91 29.89 0 1  
Sep 22 09:50 S 11 3 Rain and Fog/Mist SCT007 SCT025 OVC038 73 72     94%   75 29.91   0    
Sep 22 09:43 S 10 3 Rain and Fog/Mist FEW007 BKN029 OVC046 73 71     94%   74 29.91   0    
Sep 22 09:30 S 13 2 Heavy Rain and Fog/Mist FEW009 BKN033 OVC100 73 71     94%   74 29.92   0    
Sep 22 09:23 SSW 13 2.5 Heavy Rain and Fog/Mist SCT011 BKN037 OVC080 73 71     94%   74 29.92   0    
Sep 22 09:06 S 16 5 Rain and Fog/Mist BKN012 BKN032 OVC080 73 71     94%   74 29.92   0    
Sep 22 08:52 S 17 5 Rain and Fog/Mist SCT008 OVC018 73 71     94%   74 29.92 29.9 0    
Sep 22 08:36 S 18 5 Rain and Fog/Mist SCT008 BKN020 OVC034 73 71     94%   74 29.91   0    
Sep 22 08:14 S 21 6 Rain and Fog/Mist BKN008 BKN036 OVC070 73 71     94%   74 29.9   0    
Sep 22 07:52 S 18 3 Heavy Rain and Fog/Mist FEW007 BKN041 OVC055 73 71     94%   74 29.89 29.87 0    
Sep 22 07:47 S 20 3 Heavy Rain and Fog/Mist FEW009 BKN039 OVC055 73 72     94%   75 29.89   0    
Sep 22 07:38 S 16 3 Rain and Fog/Mist FEW027 BKN041 OVC055 73 71     94%   74 29.88   0    
Sep 22 07:29 S 16 1.5 Heavy Rain and Fog/Mist FEW020 OVC031 73 71     94%   74 29.89   0    
Sep 22 07:23 S 16 2 Heavy Rain and Fog/Mist FEW017 BKN027 OVC035 73 71     94%   74 29.89   0    
Sep 22 06:52 S 10 10 Light Rain FEW034 BKN060 OVC075 73 70     90%   74 29.89 29.87 0   0
Sep 22 05:52 S 11 8 Light Rain SCT065 BKN100 BKN120 73 70     90%   74 29.89 29.86 0    
Sep 22 04:52 S 13 6 Rain and Fog/Mist BKN060 OVC090 74 70     87%   75 29.9 29.87 0    
Sep 22 03:52 S 11 10 Mostly Clear FEW100 76 69     79%   77 29.92 29.89      
Sep 22 02:52 S 13 10 Partly Cloudy SCT100 76 69     79%   77 29.92 29.9      
Sep 22 01:52 S 11 10 Clear CLR 76 69     79%   77 29.93 29.91      
Sep 22 00:52 S 15 10 Clear CLR 77 69     77%   78 29.93 29.91      
Sep 21 23:52 S 15 10 Clear CLR 77 68     74%   78 29.93 29.91      
Sep 21 22:52 S 13 10 Clear CLR 76 68     76%   77 29.93 29.91      
Sep 21 21:52 SSE 13 10 Clear CLR 76 68     76%   77 29.93 29.91      
Sep 21 20:52 SSE 11 10 Clear CLR 77 69     77%   78 29.94 29.92      
Sep 21 19:52 SSE 10 10 Clear CLR 79 70     74%   82 29.95 29.93      
Sep 21 18:52 SSE 8 10 Clear CLR 80 71     74%   84 29.95 29.93      
Sep 21 17:52 S 16 10 Cloudy BKN055 BKN070 OVC085 82 71     69%   86 29.94 29.92      
Sep 21 16:52 S 14 10 Mostly Clear FEW120 82 72     72%   87 29.94 29.92      
Sep 21 15:52 S 15 10 Mostly Cloudy FEW028 BKN041 BKN048 81 72     74%   85 29.96 29.93      
Sep 21 14:52 S 13 10 Cloudy SCT024 SCT029 OVC039 81 72     74%   85 29.98 29.95      
Sep 21 14:15 S 14 10 Mostly Cloudy BKN023 BKN029 BKN035 80 72     76%   84 29.98        
Sep 21 13:52 S 14 10 Mostly Cloudy SCT021 BKN034 BKN110 80 72     76%   84 29.99 29.96      
Sep 21 12:52 S 15 10 Cloudy SCT014 BKN031 OVC038 76 72     88%   77 30.01 29.99     0
Sep 21 12:41 S 13 10 Cloudy BKN014 BKN025 OVC035 76 72     88%   77 30.01        
Sep 21 12:15 SSE 10 10 Cloudy FEW008 BKN021 OVC025 74 71     91%   75 30.02        
Sep 21 11:52 SW 10 10 Cloudy FEW008 SCT013 OVC024 73 71     94%   74 30.03 30.01 0    
Sep 21 11:18 SSE 21 3 Light Rain and Fog/Mist FEW009 BKN027 OVC044 73 70     90%   74 30.03   0    
Sep 21 11:15 S 20 3 Light Rain and Fog/Mist FEW009 BKN032 OVC047 73 70     90%   74 30.03   0    
Sep 21 11:00 S 18 1.75 Heavy Rain and Fog/Mist SCT009 BKN038 OVC075 73 71     94%   74 30.03   0    
Sep 21 10:52 S 15 2 Heavy Rain and Fog/Mist SCT013 BKN046 OVC070 73 71     94%   74 30.03 30.01 0    
Sep 21 10:49 S 14 2 Heavy Rain and Fog/Mist FEW013 BKN048 OVC100 73 72     94%   75 30.03   0    
Sep 21 10:31 S 15 3 Rain and Fog/Mist FEW013 BKN049 OVC090 74 71     91%   75 30.04   0    
Sep 21 10:10 S 17 2.5 Rain and Fog/Mist SCT016 BKN034 OVC047 74 71     91%   75 30.03   0    
Sep 21 09:52 S 16 10 Cloudy BKN019 OVC035 76 71     85%   77 30.03 30.01   0  
Sep 21 08:52 S 15 10 Cloudy SCT017 BKN026 OVC032 76 71     85%   77 30.01 29.99 0    
Sep 21 07:52 S 8 10 Light Rain OVC015 75 71     88%   76 30.01 29.99 0    
Sep 21 06:52 S 11 10 Cloudy SCT015 BKN024 OVC029 76 71     85%   77 29.99 29.97      
Sep 21 06:14 S 14 10 Mostly Cloudy FEW015 BKN025 BKN030 76 71     85%   77 29.98        
Sep 21 06:04 S 14 10 Partly Cloudy FEW015 SCT026 75 71     88%   76 29.98        
Sep 21 05:52 S 14 10 Mostly Cloudy SCT016 BKN026 75 71     88%   76 29.98 29.96      
Sep 21 04:52 S 10 10 Cloudy BKN019 OVC027 76 71     85%   77 29.97 29.95      
Sep 21 03:52 S 13 10 Cloudy BKN021 BKN030 OVC039 76 71     85%   77 29.96 29.94      
Sep 21 02:52 SSE 9 10 Cloudy OVC019 74 70     87%   75 29.97 29.95      
Sep 21 01:52 SSE 9 10 Cloudy OVC016 74 70     87%   75 29.96 29.95      
Sep 21 01:36 SSE 9 10 Cloudy BKN016 OVC022 74 70     87%   75 29.97        
Sep 21 01:17 SSE 11 10 Cloudy OVC014 74 70     87%   75 29.97        
Sep 21 00:52 S 13 10 Cloudy OVC016 74 70     87%   75 29.97 29.95     0
Sep 20 23:52 SSE 13 10 Cloudy OVC016 73 70     90%   74 29.98 29.96      
Sep 20 23:00 SSE 10 10 Mostly Cloudy BKN017 72 69     91%   73 29.98        
Sep 20 22:52 SSE 8 10 Partly Cloudy SCT017 72 69     91%   73 29.98 29.96      
Sep 20 22:30 SSE 11 10 Mostly Clear FEW016 72 69     91%   73 29.97        
Sep 20 22:13 SSE 10 10 Mostly Cloudy SCT016 BKN028 72 69     91%   73 29.98        
Sep 20 21:52 S 9 10 Cloudy OVC014 72 70     93%   73 29.98 29.96 0 0  
Sep 20 21:22 SSE 11 5 Light Rain and Fog/Mist BKN012 OVC017 73 70     90%   74 29.97   0    
Sep 20 20:52 SSE 11 10 Cloudy BKN017 OVC024 75 70     84%   76 29.96 29.93      
Sep 20 19:52 SSE 11 10 Cloudy OVC022 75 70     84%   76 29.94 29.92      
Sep 20 18:52 SSE 11 10 Clear   76 70     82%   77 29.94 29.92     0
Sep 20 18:44 SSE 13 10 Mostly Cloudy BKN021 76 70     82%   77 29.94        
Sep 20 18:10 SSE 11 10 Partly Cloudy SCT018 77 71     82%   78 29.93        
Sep 20 17:52 SSE 10 10 Mostly Cloudy BKN018 BKN050 77 71     82%   78 29.93 29.91 0    
Sep 20 17:42 SSE 9 10 Clear   76 71     85%   77 29.93   0    
Sep 20 17:08 SSE 9 10 Clear   75 71     88%   76 29.94   0    
Sep 20 16:52 SSE 9 7 Clear   74 71     91%   75 29.94 29.93 0    
Sep 20 15:52 S 13 10 Cloudy BKN017 OVC022 75 70     84%   76 29.95 29.93 0 0  
Sep 20 15:30 SSE 14 10 Cloudy SCT010 BKN015 OVC022 75 71     88%   76 29.95   0    
Sep 20 15:09 SSE 11 9 Cloudy BKN010 OVC016 73 70     90%   74 29.96   0    
Sep 20 14:52 SSE 14 3 Light Rain and Fog/Mist BKN007 BKN014 OVC020 73 71     94%   74 29.96 29.95 0    
Sep 20 14:47 SSE 13 3 Light Rain and Fog/Mist BKN007 BKN012 OVC017 73 72     94%   75 29.97   0    
Sep 20 14:03 SSE 14 10 Cloudy OVC011 73 70     90%   74 29.98        
Sep 20 13:52 SSE 13 6 Fog/Mist BKN009 OVC013 72 70     93%   73 29.98 29.96 0    
Sep 20 13:41 SSE 10 3 Light Rain and Fog/Mist BKN007 OVC013 72 70     93%   73 29.98   0    
Sep 20 13:10 SSE 10 2.5 Light Rain and Fog/Mist BKN007 BKN014 OVC019 72 70     93%   73 29.99   0    
Sep 20 13:04 SSE 11 3 Light Rain and Fog/Mist SCT007 BKN014 OVC019 72 70     93%   73 30   0    
Sep 20 12:52 SSE 11 2.5 Light Rain and Fog/Mist BKN007 OVC012 72 70     93%   73 30 29.98 0   0
Sep 20 12:47 SSE 13 2 Light Rain and Fog/Mist BKN007 OVC012 72 70     94%   73 30   0    
Sep 20 12:32 SSE 10 5 Light Rain and Fog/Mist BKN008 OVC013 72 70     93%   73 30   0    
Sep 20 12:17 SSE 9 2.5 Light Rain and Fog/Mist BKN006 OVC011 72 70     93%   73 30.01   0    
Sep 20 12:04 SSE 10 1.75 Rain and Fog/Mist BKN007 BKN010 OVC016 72 70     93%   73 30.01   0    
Sep 20 11:52 SE 11 2 Rain and Fog/Mist BKN007 OVC012 72 70     93%   73 30.01 29.99 0    
Sep 20 11:32 SE 11 1.75 Light Rain and Fog/Mist BKN007 OVC014 71 70     96%   72 30.02   0    
Sep 20 11:14 SSE 9 2 Light Rain and Fog/Mist BKN008 OVC013 71 69     93%   72 30.02   0    
Sep 20 11:07 SE 10 3 Light Rain and Fog/Mist BKN008 OVC017 72 69     91%   73 30.02   0    
Sep 20 11:00 SSE 10 5 Light Rain and Fog/Mist SCT012 OVC018 72 69     91%   73 30.02   0    
Sep 20 10:52 SSE 13 6 Light Rain and Fog/Mist BKN014 OVC020 71 69     93%   72 30.02 30 0    
Sep 20 10:47 SE 11 8 Cloudy OVC014 72 70     94%   73 30.01   0    
Sep 20 10:24 SE 13 10 Cloudy FEW010 BKN020 OVC030 72 69     91%   73 30.01   0    
Sep 20 09:52 SSE 7 4 Cloudy FEW008 BKN037 OVC050 71 69     93%   72 30.01 29.99 0 0  
May 15 13:52 SW 9 10 Mostly Clear FEW033 81 67     62%   83 29.96 29.94      
May 15 12:52 SW 9 10 Clear CLR 79 66     65%   80 29.98 29.96      
May 15 03:24 E 10 10 Light Rain OVC110 65 62     90%     29.96   0    
May 15 02:14 ENE 17 7 Thunderstorms and Rain BKN095 OVC110 65 63     93%     29.96   0    
May 14 23:52 N 22   Thunderstorms and Heavy Rain   64 62     93%     30.01 29.99 1    
May 14 21:52 ESE 10 10 Partly Cloudy SCT055 81 66     61%   83 29.83        
May 14 10:52 SSW 16 10 Clear CLR 85 69     59%   89 29.92 29.89      
Notice The following observation data may not be complete
May 14 06:52   9 Clear CLR          %              
May 14 03:52 SSE 7 10 Clear CLR 70 65     84%     29.92 29.9      
May 13 10:52 S 17 10 Clear CLR 82 69     65%   85 29.99 29.96      
May 11 21:52 S 15 10 Clear CLR 77 63     62%   77 29.81 29.79      
Jun 12 05:52 SSE 9 10 Clear CLR 69 65     87%     29.9 29.87      
Jun 11 21:52 SSE 9 10 Clear CLR 77 67     71%   78 29.86 29.84      
Jun 08 22:52 ESE 3 10 Clear CLR 63 57     81%     29.93 29.92      
Jun 06 09:52 NE 8 10 Clear CLR 78 66     67%   79 29.95 29.93      
Notice The following observation data may not be complete
Jun 05 20:52 Calm 10 Clear CLR   70      %     29.83 29.81